• En España
  • Lista de países
  • Para 7 días
  • Temperatura del agua
  • Mapa Satelital
  • El tiempo en el mapa
  • Informadores
  • user-avatar
    Iniciar sesión

    Tiempo cada hora Shiraz

    Hoy, 13 Noviembre, Martes

    Tiempo Temperatura Precipitaciones Viento Presión Humedad
    00:00 +14°C° 0 mm 2 mps 637 mmHg 64%
    01:00 +13°C° 0 mm 1 mps 637 mmHg 67%
    02:00 +13°C° 0 mm 1 mps 637 mmHg 68%
    03:00 +12°C° 0 mm 1 mps 637 mmHg 70%
    04:00 +12°C° 0 mm 1 mps 636 mmHg 71%
    05:00 +12°C° 0 mm 1 mps 636 mmHg 71%
    06:00 +11°C° 0 mm 1 mps 636 mmHg 71%
    07:00 +11°C° 0 mm 1 mps 636 mmHg 70%
    08:00 +12°C° 0 mm 1 mps 637 mmHg 61%
    09:00 +13°C° 0 mm 0 mps 637 mmHg 51%
    10:00 +14°C° 0 mm 0 mps 638 mmHg 41%
    11:00 +16°C° 0 mm 1 mps 638 mmHg 35%
    12:00 +18°C° 0 mm 1 mps 638 mmHg 29%
    13:00 +19°C° 0 mm 1 mps 638 mmHg 22%
    14:00 +19°C° 0 mm 2 mps 638 mmHg 21%
    15:00 +19°C° 0 mm 2 mps 637 mmHg 19%
    16:00 +19°C° 0 mm 2 mps 637 mmHg 18%
    17:00 +18°C° 0 mm 2 mps 637 mmHg 21%
    18:00 +18°C° 0 mm 1 mps 637 mmHg 25%
    19:00 +16°C° 0 mm 1 mps 637 mmHg 28%
    20:00 +15°C° 0 mm 1 mps 637 mmHg 30%
    21:00 +15°C° 0 mm 1 mps 637 mmHg 31%
    22:00 +14°C° 0 mm 1 mps 637 mmHg 33%
    23:00 +14°C° 0 mm 1 mps 636 mmHg 34%

    Mañana, 14 Noviembre, Miércoles

    Tiempo Temperatura Precipitaciones Viento Presión Humedad
    00:00 +13°C° 0 mm 1 mps 636 mmHg 34%
    01:00 +12°C° 0 mm 0 mps 636 mmHg 35%
    02:00 +12°C° 0 mm 0 mps 636 mmHg 35%
    03:00 +11°C° 0 mm 0 mps 636 mmHg 35%
    04:00 +11°C° 0 mm 0 mps 636 mmHg 35%
    05:00 +11°C° 0 mm 0 mps 636 mmHg 34%
    06:00 +11°C° 0 mm 0 mps 636 mmHg 34%
    07:00 +11°C° 0 mm 0 mps 636 mmHg 33%
    08:00 +13°C° 0.1 mm 1 mps 637 mmHg 33%
    09:00 +14°C° 0.1 mm 1 mps 637 mmHg 32%
    10:00 +15°C° 0.1 mm 1 mps 638 mmHg 32%
    11:00 +15°C° 0.8 mm 1 mps 637 mmHg 41%
    12:00 +14°C° 0.8 mm 2 mps 637 mmHg 49%
    13:00 +14°C° 0.8 mm 2 mps 637 mmHg 58%
    14:00 +14°C° 1.3 mm 2 mps 636 mmHg 63%
    15:00 +13°C° 1.3 mm 1 mps 636 mmHg 69%
    16:00 +13°C° 1.3 mm 1 mps 636 mmHg 74%
    17:00 +13°C° 0.6 mm 1 mps 636 mmHg 75%
    18:00 +13°C° 0.6 mm 1 mps 636 mmHg 76%
    19:00 +13°C° 0.6 mm 2 mps 636 mmHg 77%
    20:00 +13°C° 0 mm 2 mps 637 mmHg 77%
    21:00 +13°C° 0 mm 2 mps 637 mmHg 77%
    22:00 +13°C° 0 mm 1 mps 637 mmHg 77%
    23:00 +13°C° 0 mm 1 mps 637 mmHg 77%

    Pasado mañana, 15 Noviembre, Jueves

    Tiempo Temperatura Precipitaciones Viento Presión Humedad
    00:00 +13°C° 0 mm 1 mps 637 mmHg 78%
    01:00 +13°C° 0 mm 1 mps 637 mmHg 78%
    02:00 +13°C° 0.2 mm 1 mps 637 mmHg 78%
    03:00 +13°C° 0.2 mm 1 mps 637 mmHg 79%
    04:00 +13°C° 0.2 mm 1 mps 636 mmHg 79%
    05:00 +13°C° 0.4 mm 1 mps 637 mmHg 79%
    06:00 +13°C° 0.4 mm 1 mps 637 mmHg 79%
    07:00 +13°C° 0.4 mm 1 mps 637 mmHg 80%
    08:00 +14°C° 0.3 mm 1 mps 638 mmHg 76%
    09:00 +15°C° 0.3 mm 1 mps 639 mmHg 73%
    10:00 +16°C° 0.3 mm 1 mps 639 mmHg 69%
    11:00 +16°C° 0.8 mm 2 mps 639 mmHg 69%
    12:00 +16°C° 0.8 mm 2 mps 639 mmHg 69%
    13:00 +17°C° 0.8 mm 3 mps 639 mmHg 69%
    14:00 +16°C° 0.7 mm 2 mps 639 mmHg 69%
    15:00 +16°C° 0.7 mm 2 mps 639 mmHg 69%
    16:00 +16°C° 0.7 mm 2 mps 639 mmHg 69%
    17:00 +16°C° 0.1 mm 1 mps 639 mmHg 71%
    18:00 +16°C° 0.1 mm 1 mps 639 mmHg 73%
    19:00 +15°C° 0.1 mm 1 mps 639 mmHg 75%
    20:00 +15°C° 0 mm 1 mps 639 mmHg 75%
    21:00 +15°C° 0 mm 1 mps 639 mmHg 75%
    22:00 +15°C° 0 mm 1 mps 639 mmHg 76%
    23:00 +15°C° 0 mm 1 mps 639 mmHg 76%

    16 Noviembre, Viernes

    Tiempo Temperatura Precipitaciones Viento Presión Humedad
    00:00 +15°C° 0 mm 1 mps 639 mmHg 75%
    01:00 +15°C° 0 mm 1 mps 638 mmHg 75%
    02:00 +14°C° 0.1 mm 1 mps 638 mmHg 75%
    03:00 +14°C° 0.1 mm 1 mps 638 mmHg 75%
    04:00 +14°C° 0.1 mm 1 mps 638 mmHg 75%
    05:00 +14°C° 0.2 mm 1 mps 638 mmHg 75%
    06:00 +14°C° 0.2 mm 1 mps 639 mmHg 75%
    07:00 +15°C° 0.2 mm 1 mps 639 mmHg 74%
    08:00 +15°C° 0.5 mm 1 mps 639 mmHg 72%
    09:00 +16°C° 0.5 mm 2 mps 640 mmHg 70%
    10:00 +16°C° 0.5 mm 2 mps 640 mmHg 68%
    11:00 +16°C° 0.6 mm 2 mps 640 mmHg 66%
    12:00 +17°C° 0.6 mm 2 mps 640 mmHg 65%
    13:00 +17°C° 0.6 mm 2 mps 640 mmHg 63%
    14:00 +17°C° 0.5 mm 2 mps 640 mmHg 64%
    15:00 +17°C° 0.5 mm 2 mps 639 mmHg 65%
    16:00 +17°C° 0.5 mm 2 mps 639 mmHg 65%
    17:00 +16°C° 0.2 mm 2 mps 639 mmHg 68%
    18:00 +16°C° 0.2 mm 2 mps 639 mmHg 72%
    19:00 +15°C° 0.2 mm 2 mps 640 mmHg 75%
    20:00 +15°C° 0.1 mm 1 mps 640 mmHg 76%
    21:00 +15°C° 0.1 mm 1 mps 640 mmHg 77%
    22:00 +14°C° 0.1 mm 1 mps 640 mmHg 78%
    23:00 +14°C° 0 mm 1 mps 639 mmHg 78%

    17 Noviembre, Sábado

    Tiempo Temperatura Precipitaciones Viento Presión Humedad
    00:00 +14°C° 0 mm 1 mps 639 mmHg 78%
    01:00 +13°C° 0 mm 1 mps 639 mmHg 78%
    02:00 +12°C° 0 mm 0 mps 639 mmHg 78%
    03:00 +12°C° 0 mm 0 mps 638 mmHg 78%
    04:00 +12°C° 0 mm 0 mps 638 mmHg 78%
    05:00 +12°C° 0 mm 0 mps 638 mmHg 78%
    06:00 +11°C° 0 mm 0 mps 638 mmHg 78%
    07:00 +11°C° 0 mm 0 mps 638 mmHg 78%
    08:00 +13°C° 0 mm 0 mps 639 mmHg 71%
    09:00 +14°C° 0 mm 0 mps 640 mmHg 64%
    10:00 +16°C° 0 mm 1 mps 641 mmHg 56%
    11:00 +19°C° 0 mm 1 mps 640 mmHg 51%
    12:00 +19°C° 0 mm 2 mps 640 mmHg 45%
    13:00 +20°C° 0 mm 2 mps 640 mmHg 39%
    14:00 +20°C° 0 mm 3 mps 640 mmHg 37%
    15:00 +20°C° 0 mm 3 mps 639 mmHg 34%
    16:00 +20°C° 0 mm 3 mps 639 mmHg 31%
    17:00 +19°C° 0 mm 2 mps 639 mmHg 35%
    18:00 +18°C° 0 mm 2 mps 639 mmHg 40%
    19:00 +16°C° 0 mm 1 mps 639 mmHg 44%
    20:00 +16°C° 0 mm 1 mps 638 mmHg 45%
    21:00 +15°C° 0 mm 1 mps 638 mmHg 47%
    22:00 +15°C° 0 mm 1 mps 638 mmHg 49%
    23:00 +14°C° 0 mm 1 mps 638 mmHg 49%

    18 Noviembre, Domingo

    Tiempo Temperatura Precipitaciones Viento Presión Humedad
    00:00 +14°C° 0 mm 1 mps 637 mmHg 49%
    01:00 +13°C° 0 mm 1 mps 637 mmHg 49%
    02:00 +13°C° 0 mm 1 mps 637 mmHg 48%
    03:00 +12°C° 0 mm 1 mps 636 mmHg 48%
    04:00 +12°C° 0 mm 1 mps 636 mmHg 47%
    05:00 +11°C° 0 mm 1 mps 636 mmHg 47%
    06:00 +11°C° 0 mm 1 mps 636 mmHg 48%
    07:00 +11°C° 0 mm 1 mps 636 mmHg 48%
    08:00 +12°C° 0 mm 1 mps 637 mmHg 42%
    09:00 +13°C° 0 mm 0 mps 638 mmHg 37%
    10:00 +14°C° 0 mm 0 mps 638 mmHg 31%
    11:00 +15°C° 0 mm 0 mps 638 mmHg 29%
    12:00 +18°C° 0 mm 1 mps 638 mmHg 26%
    13:00 +19°C° 0 mm 1 mps 637 mmHg 24%
    14:00 +19°C° 0 mm 1 mps 637 mmHg 24%
    15:00 +19°C° 0 mm 1 mps 637 mmHg 23%
    16:00 +19°C° 0 mm 1 mps 637 mmHg 23%
    17:00 +18°C° 0 mm 1 mps 637 mmHg 28%
    18:00 +16°C° 0 mm 1 mps 637 mmHg 33%
    19:00 +15°C° 0 mm 1 mps 636 mmHg 38%
    20:00 +15°C° 0 mm 1 mps 636 mmHg 40%
    21:00 +14°C° 0 mm 1 mps 636 mmHg 41%
    22:00 +14°C° 0 mm 1 mps 636 mmHg 43%
    23:00 +13°C° 0 mm 1 mps 636 mmHg 43%
    Mostrar más